• Join FlightAware (Why Join?)
  • Login
  • US Flag GB Flag 
03:58 EDT


 

Airport Tracker/Info


-or-


 

Live Flight TrackerFlight Track Log ✈ FLG3729 ✈ 26-Jun-2013 ✈ KALB - KDTW

Flight Track Log - Related Links

Times and Time Zones

All times are in EDT time to prevent confusion due to time zone crossing. See the FLG3729 flight status page for this flight to view local times or setup timezone preferences in your user account.

Time Position Orientation Groundspeed Altitude Reporting Facility
EDT Latitude Longitude Course Direction KTS MPH feet Rate Location/Type
06:00 42.7694 -73.8089 283° West 160 184 1,300  Level Boston Center
06:01 42.8108 -73.8325 337° Northwest 191 220 2,900 1,860 Climbing Boston Center
06:03 42.8617 -73.9214 308° West 257 296 5,600 2,040 Climbing Boston Center
06:04 42.8250 -74.2749 281° West  Level FlightAware Approximate
06:04 42.8647 -74.0067 273° West 257 296 7,800  Level Boston Center
06:05 42.8439 -74.3964 283° West  Level FlightAware Approximate
06:05 42.8714 -74.1200 275° West 276 318 10,400  Level Boston Center
06:06 42.8641 -74.5177 283° West  Level FlightAware Approximate
06:06 42.8742 -74.2250 272° West 296 341 11,300  Level Boston Center
06:07 42.8781 -74.3611 272° West 326 375 13,100 1,620 Climbing Boston Center
06:08 42.8822 -74.4775 273° West 337 388 14,600 1,500 Climbing Boston Center
06:09 42.8881 -74.6192 273° West 342 394 16,200 1,440 Climbing Boston Center
06:10 42.8900 -74.7383 271° West 348 400 17,500 1,200 Climbing Boston Center
06:11 42.8933 -74.8717 272° West 353 406 18,600 900 Climbing Boston Center
06:12 42.8967 -75.0081 272° West 353 406 19,600 960 Climbing Boston Center
06:13 42.8992 -75.1725 271° West 358 412 20,800 1,080 Climbing Boston Center
06:14 42.9039 -75.3200 273° West 363 418 21,800 960 Climbing Boston Center
06:15 42.9086 -75.4536 273° West 363 418 22,800 840 Climbing Boston Center
06:16 42.9092 -75.5925 270° West 363 418 23,500 660 Climbing Boston Center
06:17 42.9133 -75.7317 272° West 368 423 24,200 660 Climbing Boston Center
06:18 42.9156 -75.8736 271° West 368 423 24,900 660 Climbing Boston Center
06:19 42.9175 -76.0156 271° West 368 423 25,600 660 Climbing Boston Center
06:21 42.9214 -76.2647 271° West 385 443 26,900 720 Climbing Cleveland Center
06:22 42.9225 -76.4036 271° West 380 437 27,700 540 Climbing Cleveland Center
06:23 42.9233 -76.5453 271° West 380 437 28,000 120 Climbing Cleveland Center
06:24 42.9200 -76.6903 268° West 385 443 28,000  Level Cleveland Center
06:25 42.9150 -76.8578 268° West 390 449 28,000  Level Cleveland Center
06:26 42.9094 -77.0114 267° West 400 460 28,000  Level Cleveland Center
06:27 42.9036 -77.1647 267° West 405 466 28,000  Level Cleveland Center
06:28 42.8997 -77.3208 268° West 410 472 28,000  Level Cleveland Center
06:30 42.8875 -77.6333 267° West 415 478 28,000  Level Cleveland Center
06:31 42.8808 -77.7894 267° West 415 478 28,000  Level Cleveland Center
06:32 42.8742 -77.9456 267° West 415 478 28,000  Level Cleveland Center
06:33 42.8672 -78.1017 267° West 422 486 28,000  Level Cleveland Center
06:34 42.8600 -78.2578 266° West 422 486 28,000  Level Cleveland Center
06:35 42.8525 -78.4139 266° West 422 486 28,000  Level Cleveland Center
06:36 42.8450 -78.5697 266° West 422 486 28,000  Level Cleveland Center
06:37 42.8372 -78.7314 266° West 427 491 28,000  Level Cleveland Center
06:38 42.8314 -78.8875 267° West 427 491 28,000  Level Cleveland Center
06:39 42.8208 -79.0406 265° West 427 491 28,000  Level Cleveland Center
06:40 42.8125 -79.1992 266° West 427 491 28,000  Level Cleveland Center
06:41 42.8058 -79.3578 267° West 427 491 28,000  Level Cleveland Center
06:42 42.7992 -79.5164 267° West 427 491 28,000  Level Cleveland Center
06:43 42.7881 -79.6722 265° West 427 491 28,000  Level Cleveland Center
06:44 42.7786 -79.8336 265° West 427 491 28,000  Level Cleveland Center
06:45 42.7733 -79.9581 267° West 427 491 28,000  Level Cleveland Center
06:46 42.7533 -80.1506 262° West 427 491 28,000  Level Cleveland Center
06:47 42.7456 -80.3089 266° West 422 486 28,000  Level Cleveland Center
06:48 42.7353 -80.4700 265° West 417 480 28,000  Level Cleveland Center
06:49 42.7250 -80.6256 265° West 425 489 28,000 -360 Level Cleveland Center
06:50 42.7142 -80.7839 265° West 425 489 27,300 -780 Descending Cleveland Center
06:51 42.7036 -80.9308 264° West 425 489 26,500 -900 Descending Cleveland Center
06:52 42.6842 -81.0858 260° West 430 495 25,500 -1,020 Descending Cleveland Center
06:53 42.6667 -81.2467 262° West 430 495 24,500 -1,080 Descending Cleveland Center
06:54 42.6469 -81.4103 261° West 425 489 23,400 -1,380 Descending Cleveland Center
06:55 42.6289 -81.5653 261° West 425 489 21,800 -1,560 Descending Cleveland Center
06:56 42.6089 -81.7228 260° West 425 489 20,300 -1,680 Descending Cleveland Center
06:57 42.5883 -81.8917 261° West 422 486 18,500 -1,800 Descending Cleveland Center
06:58 42.5697 -82.0464 261° West 422 486 16,700 -1,740 Descending Cleveland Center
06:59 42.5531 -82.1897 261° West 417 480 15,100 -1,680 Descending Cleveland Center
07:00 42.5344 -82.3272 260° West 392 451 13,400 -1,740 Descending Cleveland Center
07:00 42.5272 -82.3975 262° West 370 426 12,500 -780 Descending Cleveland Center
07:02 42.4886 -82.5908 255° West 368 423 11,900 -780 Descending Cleveland Center
07:02 42.4686 -82.6606 249° West 348 400 11,000 -1,380 Descending Cleveland Center
07:03 42.4356 -82.7467 243° Southwest 323 372 10,100 -1,260 Descending Cleveland Center
07:04 42.4136 -82.8106 245° Southwest 332 382 9,200 -1,680 Descending Cleveland Center
07:05 42.4117 -82.9117 269° West 278 320 7,400 -1,080 Descending Cleveland Center
07:06 42.4178 -83.0133 275° West 273 314 7,100 -360 Descending Cleveland Center
07:06 42.4272 -83.0586 286° West 259 298 6,900 -120 Descending Cleveland Center
07:07 42.4453 -83.0931 305° West 248 285 7,000 -180 Climbing Cleveland Center
07:07 42.4483 -83.1467 274° West 213 245 6,700 -780 Descending Cleveland Center
07:08 42.4258 -83.2189 247° West 203 234 5,800 -1,260 Descending Cleveland Center
07:10 42.3664 -83.2642 209° Southwest 205 236 4,000 -1,500 Descending Cleveland Center
07:10 42.3303 -83.2881 206° Southwest 191 220 3,000 -1,440 Descending Cleveland Center